{"data":{"norad_id":49125,"epoch":"2026-05-25T02:30:52.384608Z","epoch_age_seconds":65745,"freshness":"FRESH","line1":"1 49125U 21080A   26145.10477297 -.00000315  00000+0  00000+0 0  9995","line2":"2 49125   0.0128 273.4027 0001715 162.6449 305.7693  1.00273169 17410","mean_motion":1.00273169,"eccentricity":0.0001715,"inclination_deg":0.0128,"raan_deg":273.4027,"arg_perigee_deg":162.6449,"mean_anomaly_deg":305.7693,"bstar":0,"rev_number":1741,"period_min":1436.0770825942,"perigee_km":35778.97579522,"apogee_km":35793.438165205,"semimajor_km":42164.343980213,"source":"CELESTRAK","updated_at":"2026-05-25T13:38:14.101890Z"}}